Weather History for KLOL - September, 1975

Change the Weather History Date:

Sunday, September 28, 1975

  Actual Average Record
Temperature  
Mean Temperature 64 °F -  
Max Temperature 84 °F 79 °F 98 °F (2010)
Min Temperature 44 °F 41 °F 25 °F (1959)
Degree Days  
Heating Degree Days 1    
Growing Degree Days 14 (Base 50)    
Moisture  
Dew Point 25 °F    
Average Humidity 26    
Maximum Humidity 44    
Minimum Humidity 11    
Precipitation  
Precipitation 0.00 in - - ()
Sea Level Pressure  
Sea Level Pressure 30.06 in    
Wind  
Wind Speed 4 mph (SE)    
Max Wind Speed 12 mph    
Max Gust Speed -    
Visibility 20 miles    
Events      
Averages and records for this station are not official NWS values.
T = Trace of Precipitation, MM = Missing Value Source: NWS Daily Summary

Daily Weather History Graph

Daily Weather History Graph

Search for Another Location

Airport or City:

Trip Planner

Search our weather history database for the weather conditions in past years. The results will help you decide how hot, cold, wet, or windy it might be!

Date:

Astronomy

Sep. 28, 1975 Rise Set
Actual Time 6:47 AM PDT 6:42 PM PDT
Civil Twilight 6:20 AM PDT 7:09 PM PDT
Nautical Twilight 5:48 AM PDT 7:40 PM PDT
Astronomical Twilight 5:16 AM PDT 8:12 PM PDT
Moon No Moon Rise 2:16 PM PDT (9/28)
Length of Visible Light 12h 49m
Length of Day
11h 55m
Waning Gibbous, 47% of the Moon is Illuminated
Sep 28
Waning Gibbous
Oct 4
New
Oct 11
First Quarter
Oct 19
Full
Oct 27
Last Quarter

Hourly Weather History & Observations

Time (PDT) Temp. Windchill Dew Point Humidity Pressure Visibility Wind Dir Wind Speed Gust Speed Precip Events Conditions
12:00 AM 55.9 °F - 26.2 °F 32% 30.08 in 20.0 mi ENE 5.8 mph - N/A   Clear
1:00 AM 54.0 °F - 27.1 °F 36% 30.08 in 20.0 mi ESE 3.5 mph - N/A   Clear
2:00 AM 52.0 °F - 24.3 °F 34% 30.08 in 20.0 mi West 6.9 mph - N/A   Clear
3:00 AM 48.9 °F - 24.3 °F 38% 30.08 in 20.0 mi Calm Calm - N/A   Clear
4:00 AM 48.0 °F - 21.2 °F 35% 30.08 in 20.0 mi Calm Calm - N/A   Clear
5:00 AM 45.0 °F 41.2 °F 24.3 °F 44% 30.09 in 20.0 mi ESE 6.9 mph - N/A   Clear
6:00 AM 45.0 °F 43.5 °F 24.3 °F 44% 30.10 in 20.0 mi ENE 3.5 mph - N/A   Clear
7:00 AM 44.1 °F - 22.1 °F 42% 30.12 in 35.0 mi Calm Calm - N/A   Clear
8:00 AM 46.9 °F - 24.3 °F 41% 30.14 in 50.0 mi NE 4.6 mph - N/A   Clear
9:00 AM 57.9 °F - 25.2 °F 28% 30.14 in 50.0 mi Calm Calm - N/A   Clear
10:00 AM 66.0 °F - 29.1 °F 25% 30.12 in 50.0 mi Calm Calm - N/A   Clear
11:00 AM 73.0 °F - 30.2 °F 21% 30.11 in 50.0 mi South 5.8 mph - N/A   Clear
12:00 PM 77.0 °F - 26.2 °F 15% 30.09 in 35.0 mi South 5.8 mph - N/A   Clear
1:00 PM 80.1 °F - 28.2 °F 15% 30.06 in 35.0 mi West 4.6 mph - N/A   Clear
2:00 PM 80.1 °F - 24.3 °F 13% 30.03 in 35.0 mi SSE 8.1 mph - N/A   Clear
3:00 PM 82.9 °F - 23.2 °F 11% 30.01 in 35.0 mi SSE 9.2 mph - N/A   Clear
4:00 PM 84.0 °F - 24.3 °F 11% 30.00 in 35.0 mi SSE 6.9 mph - N/A   Clear
5:00 PM 84.0 °F - 25.2 °F 12% 29.99 in 35.0 mi South 6.9 mph - N/A   Clear
6:00 PM 82.9 °F - 23.2 °F 11% 29.98 in 35.0 mi South 5.8 mph - N/A   Clear
7:00 PM 75.9 °F - 29.1 °F 18% 29.99 in 35.0 mi Calm Calm - N/A   Clear
8:00 PM 72.0 °F - 29.1 °F 20% 30.00 in 20.0 mi Calm Calm - N/A   Clear
9:00 PM 64.0 °F - 22.1 °F 20% 30.01 in 20.0 mi NNE 11.5 mph - N/A   Clear
10:00 PM 59.0 °F - 20.1 °F 22% 30.01 in 20.0 mi SE 5.8 mph - N/A   Clear
11:00 PM 57.0 °F - 22.1 °F 26% 30.00 in 20.0 mi North 5.8 mph - N/A   Clear